When you browse on this site, cookies collect data to enhance your experience and personalize the content and advertising you see.
Visit our Privacy Policy to learn more. By continuing to use the site, you agree to this use of cookies and data.
  • In Österreich
  • Länderverzeichnis
  • Für 7 Tage
  • Wassertemperatur
  • Satellitenkarten
  • Wetterkarte
  • News
  • Widgets
  • user-avatar
    Anmelden

    Stündliche Wetter Polostevichi

    Heute, 24 Juli, Mittwoch

    Zeit Temperatur Niederschläge Wind Luftdruck Luftfeuchtigkeit
    00:00 +16°C° 0 mm 3 m/S 748 mmHg 96%
    01:00 +16°C° 0 mm 3 m/S 748 mmHg 96%
    02:00 +14°C° 0 mm 3 m/S 748 mmHg 97%
    03:00 +14°C° 0 mm 3 m/S 748 mmHg 97%
    04:00 +14°C° 0 mm 3 m/S 748 mmHg 97%
    05:00 +14°C° 0 mm 3 m/S 748 mmHg 97%
    06:00 +16°C° 0 mm 3 m/S 748 mmHg 94%
    07:00 +17°C° 0 mm 3 m/S 748 mmHg 91%
    08:00 +19°C° 0 mm 3 m/S 748 mmHg 88%
    09:00 +20°C° 0 mm 4 m/S 748 mmHg 79%
    10:00 +22°C° 0 mm 4 m/S 749 mmHg 69%
    11:00 +25°C° 0 mm 4 m/S 749 mmHg 60%
    12:00 +25°C° 0 mm 4 m/S 749 mmHg 58%
    13:00 +26°C° 0 mm 4 m/S 748 mmHg 56%
    14:00 +26°C° 0 mm 4 m/S 748 mmHg 55%
    15:00 +26°C° 0 mm 4 m/S 748 mmHg 57%
    16:00 +26°C° 0 mm 3 m/S 748 mmHg 59%
    17:00 +26°C° 0 mm 3 m/S 749 mmHg 61%
    18:00 +24°C° 0 mm 3 m/S 749 mmHg 68%
    19:00 +21°C° 0 mm 2 m/S 749 mmHg 74%
    20:00 +19°C° 0 mm 2 m/S 749 mmHg 81%
    21:00 +18°C° 0 mm 2 m/S 749 mmHg 84%
    22:00 +17°C° 0 mm 2 m/S 749 mmHg 87%
    23:00 +16°C° 0 mm 2 m/S 750 mmHg 90%

    Morgen, 25 Juli, Donnerstag

    Zeit Temperatur Niederschläge Wind Luftdruck Luftfeuchtigkeit
    00:00 +16°C° 0 mm 2 m/S 750 mmHg 91%
    01:00 +15°C° 0 mm 2 m/S 750 mmHg 91%
    02:00 +15°C° 0 mm 2 m/S 750 mmHg 92%
    03:00 +15°C° 0 mm 2 m/S 750 mmHg 91%
    04:00 +15°C° 0 mm 2 m/S 750 mmHg 90%
    05:00 +14°C° 0 mm 2 m/S 750 mmHg 89%
    06:00 +16°C° 0 mm 2 m/S 750 mmHg 84%
    07:00 +18°C° 0 mm 2 m/S 750 mmHg 79%
    08:00 +20°C° 0 mm 2 m/S 750 mmHg 75%
    09:00 +21°C° 0.3 mm 2 m/S 750 mmHg 72%
    10:00 +22°C° 0.3 mm 3 m/S 750 mmHg 69%
    11:00 +24°C° 0.3 mm 3 m/S 750 mmHg 66%
    12:00 +24°C° 0.8 mm 3 m/S 750 mmHg 66%
    13:00 +25°C° 0.8 mm 3 m/S 749 mmHg 66%
    14:00 +25°C° 0.8 mm 4 m/S 749 mmHg 66%
    15:00 +24°C° 0.9 mm 3 m/S 749 mmHg 70%
    16:00 +24°C° 0.9 mm 3 m/S 748 mmHg 74%
    17:00 +22°C° 0.9 mm 3 m/S 748 mmHg 78%
    18:00 +21°C° 0.4 mm 3 m/S 748 mmHg 82%
    19:00 +20°C° 0.4 mm 2 m/S 748 mmHg 86%
    20:00 +18°C° 0.4 mm 2 m/S 747 mmHg 90%
    21:00 +18°C° 0 mm 2 m/S 747 mmHg 92%
    22:00 +17°C° 0 mm 2 m/S 748 mmHg 93%
    23:00 +16°C° 0 mm 2 m/S 748 mmHg 95%

    übermorgen, 26 Juli, Freitag

    Zeit Temperatur Niederschläge Wind Luftdruck Luftfeuchtigkeit
    00:00 +15°C° 0 mm 2 m/S 747 mmHg 95%
    01:00 +15°C° 0 mm 2 m/S 747 mmHg 96%
    02:00 +14°C° 0 mm 2 m/S 747 mmHg 97%
    03:00 +14°C° 0 mm 2 m/S 747 mmHg 97%
    04:00 +14°C° 0 mm 2 m/S 747 mmHg 97%
    05:00 +14°C° 0 mm 2 m/S 747 mmHg 97%
    06:00 +14°C° 0 mm 3 m/S 747 mmHg 95%
    07:00 +16°C° 0 mm 3 m/S 747 mmHg 93%
    08:00 +17°C° 0 mm 3 m/S 747 mmHg 91%
    09:00 +18°C° 0 mm 3 m/S 747 mmHg 88%
    10:00 +18°C° 0 mm 3 m/S 747 mmHg 86%
    11:00 +19°C° 0 mm 4 m/S 747 mmHg 83%
    12:00 +20°C° 0.1 mm 4 m/S 747 mmHg 79%
    13:00 +21°C° 0.1 mm 4 m/S 747 mmHg 75%
    14:00 +23°C° 0.1 mm 4 m/S 747 mmHg 71%
    15:00 +22°C° 0.6 mm 4 m/S 747 mmHg 75%
    16:00 +22°C° 0.6 mm 4 m/S 746 mmHg 79%
    17:00 +21°C° 0.6 mm 4 m/S 746 mmHg 83%
    18:00 +20°C° 0.5 mm 4 m/S 746 mmHg 86%
    19:00 +20°C° 0.5 mm 4 m/S 746 mmHg 89%
    20:00 +19°C° 0.5 mm 4 m/S 746 mmHg 92%
    21:00 +18°C° 0.3 mm 4 m/S 746 mmHg 94%
    22:00 +18°C° 0.3 mm 4 m/S 746 mmHg 95%
    23:00 +17°C° 0.3 mm 4 m/S 746 mmHg 97%

    27 Juli, Samstag

    Zeit Temperatur Niederschläge Wind Luftdruck Luftfeuchtigkeit
    00:00 +17°C° 0 mm 3 m/S 746 mmHg 97%
    01:00 +17°C° 0 mm 3 m/S 746 mmHg 97%
    02:00 +17°C° 0 mm 2 m/S 746 mmHg 98%
    03:00 +17°C° 0.3 mm 2 m/S 746 mmHg 98%
    04:00 +17°C° 0.3 mm 2 m/S 746 mmHg 98%
    05:00 +17°C° 0.3 mm 2 m/S 746 mmHg 98%
    06:00 +17°C° 0.5 mm 2 m/S 746 mmHg 98%
    07:00 +17°C° 0.5 mm 2 m/S 746 mmHg 98%
    08:00 +17°C° 0.5 mm 2 m/S 745 mmHg 98%
    09:00 +18°C° 0.3 mm 3 m/S 745 mmHg 95%
    10:00 +19°C° 0.3 mm 3 m/S 745 mmHg 93%
    11:00 +20°C° 0.3 mm 3 m/S 745 mmHg 91%
    12:00 +21°C° 0.9 mm 4 m/S 745 mmHg 89%
    13:00 +22°C° 0.9 mm 5 m/S 745 mmHg 86%
    14:00 +23°C° 0.9 mm 5 m/S 745 mmHg 84%
    15:00 +23°C° 0.9 mm 5 m/S 744 mmHg 86%
    16:00 +22°C° 0.9 mm 5 m/S 744 mmHg 87%
    17:00 +22°C° 0.9 mm 4 m/S 744 mmHg 89%
    18:00 +21°C° 0.4 mm 4 m/S 744 mmHg 90%
    19:00 +20°C° 0.4 mm 4 m/S 744 mmHg 92%
    20:00 +20°C° 0.4 mm 3 m/S 744 mmHg 94%
    21:00 +19°C° 0 mm 3 m/S 744 mmHg 95%
    22:00 +19°C° 0 mm 3 m/S 744 mmHg 96%
    23:00 +18°C° 0 mm 2 m/S 744 mmHg 97%

    28 Juli, Sonntag

    Zeit Temperatur Niederschläge Wind Luftdruck Luftfeuchtigkeit
    00:00 +18°C° 0 mm 2 m/S 745 mmHg 97%
    01:00 +17°C° 0 mm 2 m/S 745 mmHg 97%
    02:00 +17°C° 0 mm 2 m/S 745 mmHg 97%
    03:00 +17°C° 0 mm 2 m/S 745 mmHg 97%
    04:00 +17°C° 0 mm 3 m/S 745 mmHg 97%
    05:00 +17°C° 0 mm 3 m/S 745 mmHg 97%
    06:00 +18°C° 0 mm 3 m/S 745 mmHg 94%
    07:00 +20°C° 0 mm 3 m/S 745 mmHg 92%
    08:00 +21°C° 0 mm 3 m/S 745 mmHg 89%
    09:00 +23°C° 0.3 mm 4 m/S 745 mmHg 82%
    10:00 +25°C° 0.3 mm 4 m/S 745 mmHg 76%
    11:00 +27°C° 0.3 mm 5 m/S 745 mmHg 69%
    12:00 +27°C° 0.1 mm 4 m/S 745 mmHg 67%
    13:00 +28°C° 0.1 mm 4 m/S 744 mmHg 64%
    14:00 +28°C° 0.1 mm 4 m/S 744 mmHg 62%
    15:00 +28°C° 0.4 mm 4 m/S 744 mmHg 67%
    16:00 +27°C° 0.4 mm 4 m/S 744 mmHg 71%
    17:00 +27°C° 0.4 mm 3 m/S 744 mmHg 75%
    18:00 +25°C° 0.1 mm 3 m/S 744 mmHg 80%
    19:00 +22°C° 0.1 mm 3 m/S 744 mmHg 85%
    20:00 +21°C° 0.1 mm 3 m/S 744 mmHg 90%
    21:00 +20°C° 0 mm 3 m/S 744 mmHg 91%
    22:00 +19°C° 0 mm 3 m/S 745 mmHg 93%
    23:00 +18°C° 0 mm 3 m/S 745 mmHg 95%

    29 Juli, Montag

    Zeit Temperatur Niederschläge Wind Luftdruck Luftfeuchtigkeit
    00:00 +17°C° 0 mm 3 m/S 745 mmHg 94%
    01:00 +16°C° 0 mm 3 m/S 745 mmHg 93%
    02:00 +16°C° 0 mm 3 m/S 745 mmHg 92%
    03:00 +14°C° 0 mm 3 m/S 746 mmHg 93%
    04:00 +13°C° 0 mm 3 m/S 746 mmHg 93%
    05:00 +12°C° 0 mm 3 m/S 746 mmHg 94%
    06:00 +13°C° 0 mm 3 m/S 746 mmHg 87%
    07:00 +14°C° 0 mm 3 m/S 747 mmHg 80%
    08:00 +16°C° 0 mm 3 m/S 747 mmHg 73%
    09:00 +17°C° 0 mm 4 m/S 747 mmHg 69%
    10:00 +18°C° 0 mm 4 m/S 747 mmHg 64%
    11:00 +19°C° 0 mm 4 m/S 748 mmHg 59%
    12:00 +20°C° 0 mm 4 m/S 748 mmHg 58%
    13:00 +20°C° 0 mm 4 m/S 748 mmHg 58%
    14:00 +20°C° 0 mm 4 m/S 748 mmHg 57%
    15:00 +20°C° 0 mm 3 m/S 748 mmHg 59%
    16:00 +19°C° 0 mm 3 m/S 748 mmHg 62%
    17:00 +19°C° 0 mm 3 m/S 748 mmHg 65%
    18:00 +18°C° 0 mm 3 m/S 748 mmHg 69%
    19:00 +16°C° 0 mm 2 m/S 748 mmHg 74%
    20:00 +15°C° 0 mm 1 m/S 748 mmHg 79%
    21:00 +14°C° 0 mm 2 m/S 749 mmHg 81%
    22:00 +13°C° 0 mm 2 m/S 749 mmHg 83%
    23:00 +13°C° 0 mm 2 m/S 749 mmHg 85%
    Mehr zeigen